Regional Weather Roundup
Issued by NWS Charleston, SC

Current Version | Previous Version | Graphics & Text | Print | Product List | Glossary On
Versions: 1 2 3 4 5 6 7 8 9 10 11 12 13 14 15 16 17 18 19 20 21 22 23 24 25 26 27 28 29 30 31 32 33 34 35 36 37 38 39 40 41 42 43 44 45 46 47 48 49 50
000
ASUS42 KCHS 170927
RWRCHS

REGIONAL WEATHER ROUNDUP
NATIONAL WEATHER SERVICE CHARLESTON SC
500 AM EDT TUE OCT 17 2017

NOTE: "FAIR" INDICATES FEW OR NO CLOUDS BELOW 12,000 FEET WITH NO
SIGNIFICANT WEATHER AND/OR OBSTRUCTIONS TO VISIBILITY.

NOT ALL STATIONS ARE QUALITY CONTROLLED. USE DATA WITH CAUTION...
ESPECIALLY DEWPOINT OBSERVATIONS.

SCZ027-030-031-034>040-042>050-171000-
...SOUTHEAST SOUTH CAROLINA...

CITY           SKY/WX    TMP DP  RH WIND       PRES   REMARKS
N CHARLESTON   MOCLDY    56  50  80 NE13      30.17R
WATERFRONT PRK NOT AVBL
JOHNS ISLAND   FAIR      59  50  72 N12G18    30.17R
PINOPOLIS        N/A     59  55  88 NE16      30.09S
MONCKS CORNER  FAIR      55  50  82 N9        30.20R
SUMMERVILLE    FAIR      54  50  87 N9        30.21R
BEAUFORT MCAS  MOCLDY    58  53  84 MISG      30.17R
BEAUFORT ARPT  FAIR      59  48  67 NE23G31   30.17R
HILTON HEAD IS CLOUDY    61  48  63 NE16G26   30.17R
WALTERBORO     MOSUNNY   52  48  87 N5        30.21R
ALLENDALE      NOT AVBL

...SOUTHERN MIDLANDS AND PEE DEE...

CITY           SKY/WX    TMP DP  RH WIND       PRES   REMARKS
GEORGETOWN     FAIR      54  48  82 N10       30.19R
KINGSTREE      FAIR      52  46  82 N3        30.22R
ORANGEBURG     MOCLDY    53  42  66 NE10      30.21S
BARNWELL         N/A     52  45  76 N6        30.22R
AIKEN          FAIR      46  41  81 N5        30.26S
MANNING        DRZL/FOG  50  46  87 MISG      30.21S VSB 1/2
COLUMBIA       MOCLDY    53  42  66 N6        30.23S
SUMTER         CLOUDY    51  42  69 N10       30.21R
FLORENCE       PTCLDY    50  45  83 N12       30.23R
MYRTLE BEACH   CLOUDY    55  47  74 N12       30.20R
N MYRTLE BEACH CLOUDY    55  44  66 N9        30.18R

$$

GAZ063-065-086>088-099>101-113>116-118-119-134>141-150-171000-
...SOUTHEAST GEORGIA...

CITY           SKY/WX    TMP DP  RH WIND       PRES   REMARKS
SAVANNAH ARPT  CLOUDY    57  54  89 N8        30.17R
HUNTER AAF     CLOUDY    60  51  69 NE10      30.14R
FORT STEWART   CLOUDY    59  52  78 N9        30.14R
STATESBORO     MOCLDY    55  44  65 N5        30.20R
SYLVANIA       PTSUNNY   54  47  77 NE6       30.20S
CLAXTON        FAIR      58  48  68 N6        30.19R

...CSRA...CENTRAL AND FAR SOUTHEAST GEORGIA...

CITY           SKY/WX    TMP DP  RH WIND       PRES   REMARKS
THOMSON        PTCLDY    54  41  62 E7        30.29S
AUGUSTA-BUSH   MOCLDY    54  44  69 N3        30.22S
AUGUSTA-DANIEL PTCLDY    54  43  66 N7        30.23S
SWAINSBORO     FAIR      54  45  71 NE7       30.21R
VIDALIA        PTCLDY    55  46  71 NE8       30.19R
EASTMAN        FAIR      57  36  44 NE7       30.23R
HAZLEHURST     FAIR      59  36  42 NE7       30.17R
ALMA           CLOUDY    61  47  59 VRB6      30.15R
WAYCROSS       CLOUDY    62  49  63 NE9G16    30.15R
JESUP          NOT AVBL
BAXLEY         FAIR      57  45  62 NE9       30.17R
BRUNSWICK      CLOUDY    63  54  72 N13       30.13S
SAINT SIMONS   CLOUDY    67  59  75 N15       30.11R

$$

SCZ027-028-034-036>038-045-046-048>050-GAZ119-141-171000-
...LAKE AND SUPPLEMENTAL COASTAL OBSERVATIONS...

STATION/POSITION TIME  TEMP    WIND        PRES    WAVE   SWELL
                       AIR SEA DIR/SP/G            HT/PER HT/PER/DIR
                 (UTC) (F)     (DEG/KT/KT) (MB)    (FT/S) (FT/S/D)
WINYAH BAY       0830   58      20/ 12     1021.0S
LAKE MURRAY      0920   51      10/  2/  5 1023.7R
ACE BASIN NERRS  0845   58      20/  5     1021.0S
FORT PULASKI     0900   63 78   50/ 18/ 24 1021.3
SAPELO ISLAND    0900   65      20/ 14     1020.0

$$

ANZ835-935-AMZ111-154-330-350-352-354-370-450-454-472-171000-
...C-MAN AND BUOY OBSERVATIONS...

STATION/POSITION TIME  TEMP    WIND        PRES    WAVE   SWELL
                       AIR SEA DIR/SP/G            HT/PER HT/PER/DIR
                 (UTC) (F)     (DEG/KT/KT) (MB)    (FT/S) (FT/S/D)
BUOY 41004       0910   68 81   30/ 25/ 33 1018.7
BUOY 41008       0850   70 79   50/ 25/ 31 1018.2R   8/ 6   2/200/11
FOLLY BEACH CMAN 0900   61      10/ 22/ 26 1021.5R
CAPERS NEARSHORE 0808   62 77   30/ 23/ 31 1019.6F
FRIPP NEARSHORE  0808   65      30/ 23/ 31   N/A


STATION/POSITION TIME  TEMP    WIND        PRES    WAVE   SWELL
                       AIR SEA DIR/SP/G            HT/PER HT/PER/DIR
                 (UTC) (F)     (DEG/KT/KT) (MB)    (FT/S) (FT/S/D)
5E ST. MARYS GA  0900      80                N/A     9/ 7   2/ 80/11
FRYING PAN BUOY  0910   67 78   30/ 25/ 31 1019.1
BUOY 41025       0850   66 81   20/ 27/ 35 1018.7R   9/ 8   3/120/11
CAPE LOOKOUT NC  0900   61      10/ 22/ 24 1020.2R
BUOY 41002       0850   75 80   20/ 21/ 27 1013.1F   4/10   3/130/10
BUOY 41010       NOT AVBL
ST AUGUSTINE FL  0900   75 81   30/ 27/ 30 1016.8R


$$




USA.gov is the U.S. government's official web portal to all federal, state and local government web resources and services.